Hourly Data Report for June 25, 2021

BORDEN AWOS
ONTARIO
Current Station Operator: DND

44°16'20.000" N
79°54'42.000" W
222.50 m
611B002
71534
YBN

Download Data

Hourly Data (June 2021)
Hourly Data Report for June 25, 2021
TIME
LST
Temp Definition
°C
Dew Point Definition
°C
Rel Hum Definition
%
Precip. Amount Definition
mm

Wind Dir Definition
10's deg

Wind Spd Definition
km/h
Visibility Definition
km
Stn Press Definition
kPa
Hmdx Definition


Wind Chill Definition


Weather Definition


00:00 22.0 14.8 64   17 7 14.5 99.21 26   LegendNANA
01:00 20.8 14.6 68   19 9 14.5 99.19 25   LegendNANA
02:00 20.2 14.4 69   17 9 14.5 99.17     LegendNANA
03:00 20.3 14.5 69   17 13 14.5 99.23     LegendNANA
04:00 19.9 14.1 69   16 9 14.5 99.19     LegendNANA
05:00 19.9 14.2 70   16 11 14.5 99.19     LegendNANA
06:00 20.2 14.6 70   15 11 14.5 99.24     LegendNANA
07:00 20.8 14.8 69   16 15 14.5 99.22 25   LegendNANA
08:00 21.0 15.1 69   16 11 14.5 99.21 25   LegendNANA
09:00 22.9 15.9 65   17 15 14.5 99.20 27   LegendNANA
10:00 24.2 16.5 62   18 13 14.5 99.15 29   LegendNANA
11:00 23.8 16.7 65   15 15 14.5 99.13 29   LegendNANA
12:00 23.5 17.1 67   15 20 14.5 99.08 29   Rain
13:00 21.6 19.5 88   17 13 11.3 99.09 29   Rain
14:00 20.7 19.7 94   17 17 9.7 99.07 28   Rain
15:00 20.8 19.9 95   16 13 11.3 99.04 28   Rain
16:00 20.2 19.2 94   17 19 9.7 99.02 27   Rain
17:00 19.8 19.1 96   16 19 9.7 98.97     Rain
18:00 20.3 19.6 96   16 20 14.5 98.89 28   Rain
19:00 20.4 19.8 96   16 17 8.0 98.86 28   Rain
20:00 20.3 19.8 97   15 11 11.3 98.85 28   Rain
21:00 20.2 19.7 97   13 11 4.8 98.84 28   Rain
22:00 19.8 19.4 98   13 11 2.7 98.78     LegendNANA
23:00 19.3 18.9 98   15 20 6.4 98.68     Rain

Notes on Data Quality.

Legend

  • E = Estimated
  • M = Missing
  • NA = Not Available*
  • [empty] = Indicates an unobserved value
Date modified: